Location: Bun Machan
(52.1403°N, 7.3744°W)
Time: 19:12:20
(UTC+00:00)

IRAS Rocket - Pass Details

Date: 14 July 2020
Orbit: 848 x 877 km, 100.1° (Epoch: 12 August)

Event Time Altitude Azimuth Distance (km) Brightness Sun altitude
Exits shadow 01:54:17 17° 172° (S) 2,016 5.6 -14.2°
Maximum altitude 01:58:34 71° 254° (WSW) 899 4.2 -14.0°
Drops below altitude 10° 02:04:05 10° 339° (NNW) 2,496 7.4 -13.7°
Sets 02:06:29 0° 342° (NNW) 3,440 8.2 -13.6°
